DECAYED

STARLINK-3846, 52647 (Decayed)

Orbit data source: Space-Track

STARLINK-3846, 52647 was a payload satellite owned by SpaceX/Seattle (US) in LEO that was launched on Sat, 14 May 2022 UTC via an FALCON 9 launch vehicle from the Air Force Eastern Test Range (AFETR). Payload-class satellites include a variety of spacecraft equipped with specific instruments for various scientific and technological missions. These include communications satellites like Starlink; space stations such as the ISS; scientific satellites like the Hubble; Earth observation satellites from companies like Planet Labs, Umbra, and HawkEye 360; GPS; miniature CubeSats for education and research; and military/defense satellites.

Not visible in the next 10 days
Identifier
52647, 2022-052BB
Orbit
Decayed
Country
Flag of USUS
Related business
Manufacturer
SpaceX/Seattle
Mission
Decayed Commercial Communications
Bus & Motor
STARLINK, Unknown motor
Mass
297 kg wet, ~275 kg dry
Launch date (UTC)
2022-05-14 (4 years ago)
Launch vehicle
FALCON 9
Launch site
Air Force Eastern Test Range (AFETR)
Object type
Payload
Rocket body
Debris
Shape & HBR
Box + 1 Pan, 10.1 m
Radar Cross Section
13.562 m², Large (>1 m²)

Expand to show TLE details & history
Last TLE update: 7 months ago

TLE from 7 months ago
0 STARLINK-3846
1 52647U 22052BB  25318.26492760  .06246828  12285-4  65544-3 0  9995
2 52647  53.2042  36.6388 0002232 309.6139  50.4711 16.36918045194001
Epoch: 2025-11-14T06:21Z
TLE epoch observation values (Epoch: 2025-11-14T06:21:29.744Z)
Latitude
-0.00004°
Longitude
-112.34607°
Altitude
174.029 km
Speed
7.804 km/s
True Right ascension
02h 26m 33s
True Declination
0° 00' 00"
Sunlit
Object was in full shadow at epoch
Visualization orbit readout
Latitude
Unknown
Longitude
Unknown
Altitude
Unknown
Speed
Unknown
Apparent Right ascension
Unknown
Apparent Declination
Unknown
Sunlit
N/A
Visualization observer readout
Local Sidereal Time
21:27:52
Azimuth
Unknown
Elevation
Unknown
Doppler factor
Unknown
Orbital elements
Apogee altitude
175.737 km
Perigee altitude
172.812 km
Semi-major axis
6,552.411 km
Eccentricity
0.00022
Inclination
53.2042°
RAAN
36.6388°
Arg. of periapsis
309.6139°
True anomaly
50.49083°
Mean anomaly
50.4711°
Eccentric anomaly
50.48097°
Mean motion
4.09205 °/min
Orbital period
87.98 mins
BSTAR
0.00065544
Loading maneuver chart data...
Computing Atmospheric mass density...
Loading historical data...
Loading historical data...
Loading historical data...
Loading historical data...
Loading historical data...
Loading historical data...
Loading historical data...

Documentation

Showing up to 5 results
|